[[{"header":{"parameterUnit":"m.s-1","parameterCategory":1,"la1":30.2991,"la2":30.254,"lo1":-89.0895,"lo2":-89.0444,"dy":0.0017,"dx":0.0017,"nx":28,"ny":28,"refTime":"2025-04-23T21:00:00:Z","depth":0,"parameterNumber":2,"parameterNumberName":"U-component_of_WINDS"},"data":[0,0,0,0,0,0,0,0,0,0,0,0,0,0,0,0,0,0,0,0,0,0,0,0,0,0,0,0,0,0,0,0,0,0,0,0,0,0,0,0,0,0,0,0,0,0,0,0,0,0,0,0,0,0,0,0,0,0,-2.9415,-2.9414,0,-2.9398,-2.9398,-2.9398,-2.9343,-2.9342,-2.9341,-2.9339,-2.9323,-2.9324,-2.9324,0,0,0,0,0,0,0,0,0,0,0,0,0,-2.94,-2.9401,-2.9415,-2.9414,-2.9414,-2.9398,-2.9398,-2.9398,-2.9343,-2.9342,-2.934,-2.9339,-2.9323,-2.9324,-2.9324,0,0,0,0,0,0,0,0,0,0,0,0,0,-2.9397,-2.9401,-2.9415,-2.9385,-2.9382,-2.9398,-2.9398,-2.9398,-2.9344,-2.9342,-2.934,-2.9338,-2.9322,-2.9323,-2.9325,-2.9368,0,0,-2.9328,-2.9328,0,0,0,0,0,0,0,0,-2.9398,-2.9398,-2.939,-2.9387,-2.9384,-2.9371,-2.9387,-2.9388,-2.9344,-2.9358,-2.9339,-2.9337,-2.934,-2.934,-2.9341,-2.9367,-2.9367,-2.9328,-2.9329,-2.9329,-2.9329,0,0,0,0,0,0,0,-2.9398,-2.9398,-2.9408,-2.939,-2.9386,-2.9373,-2.9371,-2.9387,-2.936,-2.9357,-2.9353,-2.9352,-2.9338,-2.934,-2.934,-2.9366,-2.9328,-2.9329,-2.9329,-2.933,-2.9429,-2.943,0,0,0,0,0,0,-2.9402,-2.9399,-2.9409,-2.9408,-2.9386,-2.9375,-2.9372,-2.9377,-2.936,-2.9355,-2.9353,-2.9349,-2.9339,-2.9339,-2.9339,-2.9389,-2.9329,-2.933,-2.9331,-2.9427,-2.9429,-2.9431,0,0,0,0,0,0,-2.9402,-2.9404,-2.9409,-2.9402,-2.9402,-2.9377,-2.9383,-2.9378,-2.9379,-2.9357,-2.9352,-2.9359,-2.9338,-2.9338,-2.9361,-2.9387,-2.933,-2.9331,-2.9424,-2.9427,-2.943,-2.9488,0,0,0,0,0,0,-2.9402,-2.9404,-2.9419,-2.9403,-2.9403,-2.9431,-2.9384,-2.9379,-2.9381,-2.9375,-2.9361,-2.9357,-2.9336,-2.936,-2.9363,-2.9388,-2.9332,-2.9422,-2.9426,-2.9429,-2.9484,-2.9493,-2.95,0,0,0,0,0,-2.9402,-2.9436,-2.9421,-2.9422,-2.9422,-2.9433,-2.9433,-2.9407,-2.9383,-2.9399,-2.9385,-2.9358,-2.9385,-2.9363,-2.9365,-2.9391,-2.942,-2.9425,-2.9429,-2.948,-2.9491,-2.95,0,0,0,0,0,0,-2.9456,-2.9434,-2.9416,-2.9446,-2.9442,-2.9424,-2.9442,-2.942,-2.9422,-2.9417,-2.9386,-2.9383,-2.9411,-2.9404,-2.938,-2.9433,-2.9398,-2.9403,-2.9436,-2.9446,-2.9454,-2.9454,-2.9333,0,0,0,0,0,-2.9472,-2.9483,-2.9463,-2.9491,-2.949,-2.9467,-2.9471,-2.9452,-2.9447,-2.9444,-2.9432,-2.9428,-2.9436,-2.9441,-2.9447,-2.9484,-2.9479,-2.9503,-2.9511,-2.9518,-2.9522,-2.9541,-2.9551,-2.9446,-2.9446,-2.9446,0,0,-2.9504,-2.9493,-2.9501,-2.9502,-2.9496,-2.9509,-2.9466,-2.948,-2.9489,-2.9447,-2.9467,-2.9459,-2.9453,-2.9483,-2.9496,-2.9478,-2.9551,-2.9524,-2.9529,-2.9529,-2.9547,-2.9556,-2.9565,-2.9449,-2.9448,-2.9448,0,0,-2.9568,-2.9561,-2.9584,-2.958,-2.9573,-2.9558,-2.9564,-2.9549,-2.9542,-2.9563,-2.9532,-2.9542,-2.9556,-2.9552,-2.9552,-2.9619,-2.9593,-2.9622,-2.9664,-2.9683,-2.9691,-2.9698,-2.9721,-2.9729,-2.9627,-2.9627,-2.9627,0,-2.9608,-2.9625,-2.9599,-2.9616,-2.9617,-2.9581,-2.9604,-2.9602,-2.9597,-2.9599,-2.9579,-2.9596,-2.9589,-2.9618,-2.9634,-2.9636,-2.9642,-2.9622,-2.9692,-2.9699,-2.9705,-2.9726,-2.9735,-2.963,-2.963,-2.9629,-2.9629,0,-2.9675,-2.9687,-2.9707,-2.9703,-2.9707,-2.9728,-2.9705,-2.9713,-2.9695,-2.9682,-2.9705,-2.9696,-2.9699,-2.9705,-2.9688,-2.9732,-2.9721,-2.9698,-2.9661,-2.9719,-2.9738,-2.9746,-2.9635,-2.9634,-2.9633,-2.9632,0,0,-2.9769,-2.9753,-2.9761,-2.9759,-2.9749,-2.9758,-2.9778,-2.9781,-2.9788,-2.9787,-2.9802,-2.9816,-2.9794,-2.9794,-2.9777,-2.9794,-2.9846,-2.9768,-2.9767,-2.9781,-2.9894,-2.991,-2.992,-2.9831,-2.9832,-2.9833,-2.9894,0,-2.9829,-2.986,-2.9839,-2.9873,-2.9885,-2.9852,-2.9869,-2.9865,-2.9855,-2.9863,-2.9852,-2.9861,-2.9833,-2.9833,-2.9848,-2.9836,-2.9868,-2.9832,-2.9843,-2.9844,-2.9843,-2.993,-2.9947,-3.0004,-2.9901,-2.9903,-2.9903,0,-2.9902,-2.9904,-2.994,-2.9929,-2.9933,-2.9948,-2.995,-2.9959,-2.9955,-2.9946,-2.9948,-2.9927,-2.9945,-2.9912,-2.9938,-2.9914,-2.9918,-2.9913,-2.9915,-2.9913,-2.9875,-2.9928,-3.0022,-3.003,-2.9915,-2.9914,-2.9914,0,-2.9965,-2.9978,-3.0001,-3.0001,-2.9989,-3.0,-2.9996,-2.999,-2.9994,-2.9997,-2.9999,-3.0004,-3.0006,-3.0011,-2.9992,-2.997,-3.002,-2.9985,-3.0012,-3.0013,-3.0022,-3.0021,-3.0115,-3.0029,-3.0029,-3.0028,-3.0028,0,-3.0033,-3.0055,-3.0029,-3.0043,-3.0068,-3.0045,-3.007,-3.0063,-3.0058,-3.0071,-3.0044,-3.0056,-3.0031,-3.0041,-3.0027,-3.0049,-3.0051,-3.0044,-3.004,-3.0045,-3.0046,-3.0045,-3.004,-3.0031,-3.003,-3.003,-3.0029,0,-3.0106,-3.009,-3.0112,-3.01,-3.0098,-3.0117,-3.0107,-3.0119,-3.0108,-3.0124,-3.0127,-3.0109,-3.012,-3.0102,-3.011,-3.0101,-3.0132,-3.0123,-3.0133,-3.0129,-3.0157,-3.0154,-3.0252,-3.0264,-3.0172,-3.0173,-3.0174,0,-3.0149,-3.0166,-3.0156,-3.0162,-3.016,-3.017,-3.0175,-3.0153,-3.0159,-3.0157,-3.017,-3.0178,-3.0183,-3.0202,-3.019,-3.0196,-3.0185,-3.022,-3.0186,-3.0191,-3.0184,-3.0182,-3.0183,-3.0226,-3.0227,-3.0228,-3.0228,0,-3.0226,-3.0218,-3.0224,-3.0229,-3.0235,-3.0238,-3.0239,-3.0246,-3.0223,-3.0231,-3.0242,-3.0246,-3.0255,-3.0263,-3.0268,-3.0264,-3.0242,-3.024,-3.0246,-3.025,-3.0255,-3.0251,-3.015,-3.0237,-3.0236,-3.0235,-3.0235,-3.0234,-3.0284,-3.0298,-3.0293,-3.0302,-3.0301,-3.0303,-3.0314,-3.0305,-3.0314,-3.0319,-3.0307,-3.032,-3.0317,-3.0321,-3.0319,-3.033,-3.0315,-3.0324,-3.0326,-3.0328,-3.0332,-3.0256,-3.0331,-3.0331,-3.033,-3.033,-3.033,0,-3.0359,-3.0355,-3.0363,-3.0366,-3.0373,-3.0354,-3.0355,-3.0362,-3.0374,-3.0373,-3.038,-3.0392,-3.0401,-3.0391,-3.0398,-3.0408,-3.0399,-3.0411,-3.0408,-3.0408,-3.0346,-3.0339,-3.0418,-3.0418,-3.0418,-3.0418,-3.0418,-3.0418,-3.0398,-3.042,-3.0411,-3.0433,-3.0429,-3.0442,-3.0444,-3.0445,-3.0445,-3.046,-3.0467,-3.0461,-3.0456,-3.0463,-3.0471,-3.0468,-3.0471,-3.0486,-3.0479,-3.0421,-3.0412,-3.0404,-3.0397,-3.0487,-3.0487,-3.0539,-3.054,-3.054]},{"header":{"parameterUnit":"m.s-1","parameterCategory":1,"la1":30.2991,"la2":30.254,"lo1":-89.0895,"lo2":-89.0444,"dy":0.0017,"dx":0.0017,"nx":28,"ny":28,"refTime":"2025-04-23T21:00:00:Z","depth":0,"parameterNumber":3,"parameterNumberName":"V-component_of_WINDS"},"data":[0,0,0,0,0,0,0,0,0,0,0,0,0,0,0,0,0,0,0,0,0,0,0,0,0,0,0,0,0,0,0,0,0,0,0,0,0,0,0,0,0,0,0,0,0,0,0,0,0,0,0,0,0,0,0,0,0,0,4.001,4.001,0,3.999,3.999,3.999,4.0003,4.0004,4.0004,4.0005,3.9978,3.9977,3.9976,0,0,0,0,0,0,0,0,0,0,0,0,0,4.0053,4.0053,4.001,4.001,4.0009,3.999,3.999,3.999,4.0003,4.0004,4.0004,4.0005,3.9979,3.9977,3.9976,0,0,0,0,0,0,0,0,0,0,0,0,0,4.0034,4.0052,4.001,4.0014,4.0014,3.999,3.999,3.999,4.0003,4.0004,4.0005,4.0005,3.9979,3.9977,3.9975,3.9945,0,0,3.997,3.9969,0,0,0,0,0,0,0,0,4.0035,4.0032,4.0013,4.0013,4.0014,4.0,3.9996,3.9974,4.0002,4.0007,4.0005,4.0006,3.9984,3.9982,3.9976,3.9944,3.9943,3.9969,3.9968,3.9967,3.9967,0,0,0,0,0,0,0,4.0036,4.0033,4.0002,4.0013,4.0013,4.0015,4.0013,3.9992,3.999,4.0006,4.0007,4.0005,3.9985,3.9978,3.9976,3.9942,3.9969,3.9968,3.9967,3.9966,3.9884,3.9883,0,0,0,0,0,0,4.0038,4.0034,4.0002,4.0001,4.0027,4.0013,4.0011,4.0003,3.9991,3.999,4.0004,4.0006,3.9981,3.9978,3.9975,3.9939,3.9967,3.9966,3.9965,3.9885,3.9884,3.9883,0,0,0,0,0,0,4.0039,4.0035,4.0003,4.0018,4.0014,4.0012,4.0002,4.0003,3.9996,3.9989,3.9989,3.9998,3.9981,3.9977,3.9953,3.9938,3.9965,3.9963,3.9887,3.9885,3.9884,3.9866,0,0,0,0,0,0,4.004,4.0036,4.0025,4.0018,4.0013,3.9983,4.0002,4.0001,3.9993,3.9995,3.9983,3.9982,3.9982,3.9956,3.9951,3.9936,3.9961,3.9888,3.9886,3.9884,3.9868,3.9864,3.9861,0,0,0,0,0,4.0042,4.0019,4.0024,4.0021,4.0001,3.9982,3.998,3.9982,3.9992,3.9981,3.9977,3.9983,3.9941,3.9953,3.9948,3.9932,3.9889,3.9886,3.9884,3.987,3.9865,3.9861,0,0,0,0,0,0,4.0022,4.0018,4.0024,3.9999,3.9991,3.9985,3.9971,3.9976,3.9964,3.9966,3.9967,3.9964,3.9938,3.9933,3.9947,3.9902,3.9916,3.9913,3.9907,3.9902,3.9899,3.99,3.996,0,0,0,0,0,4.0016,4.0003,3.9999,3.9977,3.9974,3.9973,3.9965,3.9967,3.9959,3.9955,3.9949,3.9938,3.9923,3.9912,3.9897,3.9868,3.9865,3.9854,3.9851,3.9848,3.9844,3.9829,3.9824,3.9876,3.9876,3.9876,0,0,4.0,3.9997,3.9988,3.9974,3.9968,3.9953,3.997,3.9953,3.9942,3.9951,3.9929,3.9924,3.9912,3.9885,3.9873,3.9879,3.983,3.9845,3.9843,3.9841,3.9826,3.9821,3.9816,3.9874,3.9874,3.9875,0,0,3.9966,3.9962,3.9944,3.9938,3.9931,3.993,3.9926,3.9919,3.9917,3.9895,3.9902,3.9887,3.9861,3.9853,3.9845,3.9809,3.9813,3.9804,3.9785,3.9769,3.9765,3.9762,3.9749,3.9744,3.9801,3.98,3.98,0,3.9947,3.9928,3.9933,3.9917,3.991,3.992,3.9901,3.9895,3.9882,3.9876,3.9884,3.9852,3.9845,3.9816,3.9808,3.9801,3.9795,3.9805,3.9766,3.9762,3.9759,3.9746,3.9742,3.9799,3.9799,3.98,3.98,0,3.9905,3.9892,3.9878,3.9868,3.9859,3.9841,3.9843,3.9833,3.9837,3.9835,3.9812,3.9804,3.9789,3.9782,3.9784,3.9754,3.9758,3.9766,3.978,3.9753,3.9741,3.9736,3.9798,3.9798,3.9798,3.9799,0,0,3.9857,3.9851,3.9846,3.9842,3.9835,3.9823,3.9806,3.9793,3.9785,3.9775,3.976,3.9738,3.9746,3.9737,3.9739,3.9725,3.9697,3.9735,3.9734,3.9728,3.9663,3.9658,3.9652,3.9701,3.97,3.9699,3.9664,0,3.9822,3.9794,3.9799,3.9771,3.9758,3.9768,3.9753,3.9746,3.9744,3.9732,3.9729,3.9714,3.9726,3.972,3.9708,3.9704,3.9684,3.9706,3.9685,3.9685,3.9688,3.9646,3.9639,3.9607,3.966,3.9659,3.9659,0,3.9777,3.9769,3.9741,3.9737,3.9731,3.9718,3.9707,3.9695,3.9687,3.9687,3.9679,3.9683,3.9664,3.9679,3.9653,3.9668,3.9659,3.9656,3.9655,3.9653,3.967,3.9642,3.9596,3.9591,3.9652,3.9652,3.9653,0,3.9745,3.9726,3.9707,3.9703,3.9698,3.9688,3.9685,3.9679,3.9671,3.9661,3.9656,3.9642,3.9635,3.9624,3.9624,3.9635,3.9597,3.9612,3.9596,3.9596,3.9586,3.9587,3.9539,3.9582,3.9582,3.9582,3.9582,0,3.9705,3.9687,3.9693,3.9681,3.9661,3.9666,3.9646,3.9644,3.9638,3.9625,3.9632,3.9619,3.9621,3.9607,3.9607,3.9585,3.9582,3.958,3.958,3.9579,3.958,3.9573,3.9576,3.9581,3.9581,3.9581,3.9581,0,3.9665,3.9669,3.9648,3.9646,3.9645,3.963,3.9627,3.9615,3.9615,3.9599,3.9595,3.9594,3.9578,3.9578,3.9559,3.9559,3.9533,3.9536,3.9536,3.9537,3.952,3.9522,3.9466,3.9459,3.9507,3.9506,3.9506,0,3.964,3.9627,3.9624,3.9617,3.9614,3.9602,3.9595,3.9599,3.9591,3.9582,3.9571,3.9557,3.9546,3.9521,3.9517,3.9504,3.9506,3.9487,3.9503,3.9503,3.9505,3.9506,3.9505,3.9484,3.9483,3.9483,3.9482,0,3.9594,3.9597,3.9588,3.9579,3.9571,3.9563,3.9557,3.955,3.9553,3.9544,3.953,3.9522,3.9505,3.949,3.9477,3.9472,3.9477,3.9478,3.9473,3.9472,3.9473,3.9472,3.9528,3.9478,3.9479,3.9479,3.9479,3.9479,3.9561,3.955,3.9547,3.9536,3.9532,3.9526,3.9515,3.9515,3.9504,3.9491,3.9494,3.9478,3.9471,3.9454,3.9448,3.9435,3.9441,3.9434,3.9433,3.9431,3.9429,3.9476,3.9433,3.9433,3.9433,3.9433,3.9433,0,3.9516,3.9515,3.9505,3.9497,3.9488,3.9496,3.949,3.9481,3.9468,3.9462,3.9452,3.9435,3.9422,3.9418,3.9405,3.9395,3.9397,3.9391,3.9392,3.939,3.9424,3.943,3.939,3.939,3.939,3.939,3.939,3.939,3.9492,3.9474,3.9476,3.9456,3.9455,3.9441,3.9437,3.9431,3.9426,3.9408,3.9398,3.9397,3.9391,3.9378,3.9365,3.9364,3.9359,3.9352,3.9352,3.9384,3.9388,3.9392,3.9397,3.9351,3.9351,3.9319,3.9319,3.9319]}]]